TimeEDT,TemperatureF,Dew PointF,Humidity,Sea Level PressureIn,VisibilityMPH,Wind Direction,Wind SpeedMPH,Gust SpeedMPH,PrecipitationIn,Events,Conditions,WindDirDegrees,DateUTC
12:15 AM,75.2,73.4,94,29.95,5.0,Calm,Calm,-,N/A,,Clear,0,2013-09-01 04:15:00
12:35 AM,75.2,73.4,94,29.95,7.0,Calm,Calm,-,N/A,,Clear,0,2013-09-01 04:35:00
12:53 AM,77.0,73.0,88,29.93,-9999.0,Calm,Calm,-,N/A,,Unknown,0,2013-09-01 04:53:00
1:15 AM,75.2,71.6,89,29.94,7.0,Calm,Calm,-,N/A,,Clear,0,2013-09-01 05:15:00
1:35 AM,73.4,71.6,94,29.93,7.0,Calm,Calm,-,N/A,,Clear,0,2013-09-01 05:35:00
1:53 AM,75.0,72.0,90,29.91,-9999.0,Calm,Calm,-,N/A,,Unknown,0,2013-09-01 05:53:00
1:55 AM,73.4,71.6,94,29.92,4.0,Calm,Calm,-,N/A,,Clear,0,2013-09-01 05:55:00
2:15 AM,73.4,71.6,94,29.92,4.0,Calm,Calm,-,N/A,,Clear,0,2013-09-01 06:15:00
2:35 AM,73.4,71.6,94,29.92,4.0,Calm,Calm,-,N/A,,Scattered Clouds,0,2013-09-01 06:35:00
2:53 AM,75.0,72.0,90,29.91,-9999.0,Calm,Calm,-,N/A,,Unknown,0,2013-09-01 06:53:00
2:55 AM,73.4,71.6,94,29.92,2.5,Calm,Calm,-,N/A,,Scattered Clouds,0,2013-09-01 06:55:00
3:15 AM,73.4,71.6,94,29.92,4.0,Calm,Calm,-,N/A,,Clear,0,2013-09-01 07:15:00
3:35 AM,73.4,71.6,94,29.92,3.0,Calm,Calm,-,N/A,,Clear,0,2013-09-01 07:35:00
3:53 AM,75.0,73.0,94,29.91,-9999.0,Calm,Calm,-,N/A,,Unknown,0,2013-09-01 07:53:00
3:55 AM,73.4,71.6,94,29.92,5.0,Calm,Calm,-,N/A,,Clear,0,2013-09-01 07:55:00
4:15 AM,73.4,71.6,94,29.92,5.0,Calm,Calm,-,N/A,,Clear,0,2013-09-01 08:15:00
4:35 AM,73.4,71.6,94,29.92,4.0,Calm,Calm,-,N/A,,Clear,0,2013-09-01 08:35:00
4:53 AM,75.0,72.0,90,29.91,-9999.0,Calm,Calm,-,N/A,,Unknown,0,2013-09-01 08:53:00
4:55 AM,73.4,71.6,94,29.92,2.0,Calm,Calm,-,N/A,,Clear,0,2013-09-01 08:55:00
5:15 AM,71.6,71.6,100,29.92,2.5,Calm,Calm,-,N/A,,Clear,0,2013-09-01 09:15:00
5:35 AM,71.6,71.6,100,29.92,1.2,Calm,Calm,-,N/A,,Mist,0,2013-09-01 09:35:00
5:53 AM,73.0,71.1,93,29.92,-9999.0,ESE,3.5,-,N/A,,Unknown,110,2013-09-01 09:53:00
5:55 AM,71.6,69.8,94,29.93,2.0,ESE,3.5,-,N/A,,Clear,120,2013-09-01 09:55:00
6:15 AM,71.6,69.8,94,29.93,4.0,Calm,Calm,-,N/A,,Clear,0,2013-09-01 10:15:00
6:35 AM,71.6,69.8,94,29.94,3.0,Calm,Calm,-,N/A,,Clear,0,2013-09-01 10:35:00
6:53 AM,73.9,72.0,93,29.93,-9999.0,Calm,Calm,-,N/A,,Unknown,0,2013-09-01 10:53:00
6:55 AM,71.6,71.6,100,29.95,4.0,Calm,Calm,-,N/A,,Scattered Clouds,0,2013-09-01 10:55:00
7:15 AM,71.6,69.8,94,29.95,2.5,Calm,Calm,-,N/A,,Scattered Clouds,0,2013-09-01 11:15:00
7:35 AM,73.4,71.6,94,29.95,2.5,ESE,3.5,-,N/A,,Clear,120,2013-09-01 11:35:00
7:53 AM,75.9,73.0,91,29.94,-9999.0,ESE,3.5,-,N/A,,Unknown,110,2013-09-01 11:53:00
7:55 AM,73.4,71.6,94,29.95,4.0,Calm,Calm,-,N/A,,Scattered Clouds,0,2013-09-01 11:55:00
8:15 AM,73.4,71.6,94,29.96,5.0,ESE,4.6,-,N/A,,Clear,120,2013-09-01 12:15:00
8:35 AM,75.2,73.4,94,29.96,7.0,SE,3.5,-,N/A,,Clear,130,2013-09-01 12:35:00
8:53 AM,78.1,73.9,87,29.96,-9999.0,Calm,Calm,-,N/A,,Unknown,0,2013-09-01 12:53:00
8:55 AM,75.2,73.4,94,29.97,7.0,Calm,Calm,-,N/A,,Clear,0,2013-09-01 12:55:00
9:15 AM,77.0,75.2,94,29.97,10.0,Calm,Calm,-,N/A,,Scattered Clouds,0,2013-09-01 13:15:00
9:35 AM,78.8,75.2,89,29.98,10.0,SSW,5.8,-,N/A,,Scattered Clouds,210,2013-09-01 13:35:00
9:53 AM,84.0,75.0,74,29.96,-9999.0,South,8.1,-,N/A,,Unknown,190,2013-09-01 13:53:00
9:55 AM,82.4,75.2,79,29.97,10.0,SSW,5.8,-,N/A,,Clear,200,2013-09-01 13:55:00
10:15 AM,82.4,73.4,74,29.98,10.0,SSW,8.1,-,N/A,Rain,Light Rain,200,2013-09-01 14:15:00
10:35 AM,82.4,71.6,70,29.98,10.0,WSW,6.9,-,N/A,,Mostly Cloudy,250,2013-09-01 14:35:00
10:53 AM,82.0,75.0,79,29.97,-9999.0,West,4.6,-,0.12,,Unknown,280,2013-09-01 14:53:00
10:55 AM,80.6,73.4,79,29.99,7.0,West,4.6,-,0.08,Rain,Light Rain,280,2013-09-01 14:55:00
11:15 AM,80.6,73.4,79,29.98,10.0,WSW,5.8,-,N/A,,Mostly Cloudy,240,2013-09-01 15:15:00
11:35 AM,84.2,69.8,62,29.98,10.0,WSW,11.5,-,N/A,,Scattered Clouds,240,2013-09-01 15:35:00
11:53 AM,87.1,73.0,63,29.96,-9999.0,South,10.4,-,N/A,,Unknown,190,2013-09-01 15:53:00
11:55 AM,86.0,71.6,62,29.98,10.0,SSW,9.2,-,N/A,,Clear,210,2013-09-01 15:55:00
12:15 PM,86.0,73.4,66,29.98,10.0,West,10.4,-,N/A,,Mostly Cloudy,260,2013-09-01 16:15:00
12:35 PM,84.2,71.6,66,29.98,10.0,SW,11.5,-,N/A,,Mostly Cloudy,230,2013-09-01 16:35:00
12:53 PM,86.0,72.0,63,29.96,-9999.0,SW,11.5,-,N/A,,Unknown,230,2013-09-01 16:53:00
12:55 PM,84.2,71.6,66,29.97,10.0,SW,9.2,-,N/A,,Mostly Cloudy,230,2013-09-01 16:55:00
1:15 PM,86.0,71.6,62,29.97,10.0,WSW,13.8,18.4,N/A,,Mostly Cloudy,240,2013-09-01 17:15:00
1:35 PM,86.0,69.8,58,29.97,10.0,WSW,8.1,-,N/A,,Scattered Clouds,240,2013-09-01 17:35:00
1:53 PM,89.1,73.0,59,29.95,-9999.0,SSW,8.1,17.3,N/A,,Unknown,210,2013-09-01 17:53:00
1:55 PM,86.0,69.8,58,29.96,10.0,SW,6.9,-,N/A,,Clear,220,2013-09-01 17:55:00
2:15 PM,87.8,69.8,55,29.96,10.0,SSW,8.1,-,N/A,,Scattered Clouds,210,2013-09-01 18:15:00
2:35 PM,86.0,69.8,58,29.95,10.0,SW,9.2,-,N/A,,Scattered Clouds,230,2013-09-01 18:35:00
2:53 PM,88.0,72.0,59,29.93,-9999.0,SW,11.5,17.3,N/A,,Unknown,230,2013-09-01 18:53:00
2:55 PM,86.0,69.8,58,29.95,10.0,WSW,9.2,17.3,N/A,,Scattered Clouds,240,2013-09-01 18:55:00
3:15 PM,87.8,69.8,55,29.95,10.0,WSW,10.4,18.4,N/A,,Scattered Clouds,240,2013-09-01 19:15:00
3:35 PM,86.0,69.8,58,29.93,10.0,SW,12.7,17.3,N/A,,Scattered Clouds,220,2013-09-01 19:35:00
3:53 PM,88.0,73.0,61,29.91,-9999.0,SW,10.4,-,N/A,,Unknown,230,2013-09-01 19:53:00
3:55 PM,86.0,71.6,62,29.93,10.0,SSW,8.1,-,N/A,,Scattered Clouds,210,2013-09-01 19:55:00
4:15 PM,86.0,71.6,62,29.92,10.0,SSW,11.5,-,N/A,,Scattered Clouds,200,2013-09-01 20:15:00
4:35 PM,86.0,71.6,62,29.92,10.0,SW,11.5,16.1,N/A,,Scattered Clouds,230,2013-09-01 20:35:00
4:53 PM,87.1,72.0,61,29.90,-9999.0,SW,10.4,-,N/A,,Unknown,220,2013-09-01 20:53:00
4:55 PM,86.0,71.6,62,29.92,10.0,SW,11.5,16.1,N/A,,Scattered Clouds,230,2013-09-01 20:55:00
5:15 PM,86.0,71.6,62,29.92,10.0,SW,8.1,-,N/A,,Clear,230,2013-09-01 21:15:00
5:35 PM,86.0,71.6,62,29.92,10.0,SW,9.2,-,N/A,,Scattered Clouds,220,2013-09-01 21:35:00
5:53 PM,87.1,72.0,61,29.90,-9999.0,SW,13.8,-,N/A,,Unknown,220,2013-09-01 21:53:00
5:55 PM,86.0,69.8,58,29.92,10.0,SW,10.4,-,N/A,,Scattered Clouds,230,2013-09-01 21:55:00
6:15 PM,86.0,71.6,62,29.91,10.0,SW,8.1,-,N/A,,Clear,230,2013-09-01 22:15:00
6:35 PM,84.2,71.6,66,29.92,10.0,SW,8.1,-,N/A,,Scattered Clouds,220,2013-09-01 22:35:00
6:53 PM,84.9,73.0,67,29.89,-9999.0,SSW,6.9,-,N/A,,Unknown,210,2013-09-01 22:53:00
6:55 PM,82.4,71.6,70,29.91,10.0,SW,8.1,-,N/A,,Scattered Clouds,220,2013-09-01 22:55:00
7:15 PM,82.4,71.6,70,29.91,10.0,SW,9.2,-,N/A,,Scattered Clouds,220,2013-09-01 23:15:00
7:35 PM,80.6,71.6,74,29.92,10.0,SW,5.8,-,N/A,,Clear,220,2013-09-01 23:35:00
7:53 PM,82.0,73.0,74,29.91,-9999.0,SSW,4.6,-,N/A,,Unknown,200,2013-09-01 23:53:00
7:55 PM,80.6,71.6,74,29.92,10.0,SSW,3.5,-,N/A,,Clear,200,2013-09-01 23:55:00
8:15 PM,78.8,71.6,78,29.94,7.0,Calm,Calm,-,N/A,,Clear,0,2013-09-02 00:15:00
8:35 PM,78.8,71.6,78,29.94,10.0,Calm,Calm,-,N/A,,Scattered Clouds,0,2013-09-02 00:35:00
8:53 PM,80.1,73.0,79,29.93,-9999.0,Calm,Calm,-,N/A,,Unknown,0,2013-09-02 00:53:00
8:55 PM,78.8,71.6,78,29.95,10.0,Calm,Calm,-,N/A,,Scattered Clouds,0,2013-09-02 00:55:00
9:15 PM,77.0,71.6,83,29.96,10.0,Calm,Calm,-,N/A,,Scattered Clouds,0,2013-09-02 01:15:00
9:35 PM,77.0,71.6,83,29.97,10.0,Calm,Calm,-,N/A,,Clear,0,2013-09-02 01:35:00
9:53 PM,78.1,73.0,84,29.96,-9999.0,Calm,Calm,-,N/A,,Unknown,0,2013-09-02 01:53:00
9:55 PM,77.0,71.6,83,29.97,10.0,Calm,Calm,-,N/A,,Scattered Clouds,0,2013-09-02 01:55:00
10:15 PM,77.0,71.6,83,29.96,10.0,South,4.6,-,N/A,,Scattered Clouds,170,2013-09-02 02:15:00
10:35 PM,77.0,73.4,89,29.95,10.0,South,4.6,-,N/A,,Clear,170,2013-09-02 02:35:00
10:53 PM,78.1,73.0,84,29.94,-9999.0,South,3.5,-,N/A,,Unknown,170,2013-09-02 02:53:00
10:55 PM,77.0,73.4,89,29.96,10.0,Calm,Calm,-,N/A,,Scattered Clouds,0,2013-09-02 02:55:00
11:15 PM,75.2,71.6,89,29.95,10.0,SSE,4.6,-,N/A,,Clear,150,2013-09-02 03:15:00
11:35 PM,77.0,71.6,83,29.96,10.0,Calm,Calm,-,N/A,,Clear,0,2013-09-02 03:35:00
11:53 PM,77.0,73.0,88,29.95,-9999.0,Calm,Calm,-,N/A,,Unknown,0,2013-09-02 03:53:00
11:55 PM,75.2,71.6,89,29.96,10.0,Calm,Calm,-,N/A,,Clear,0,2013-09-02 03:55:00